Location: PSU-Greenbush Astrophysical Observatory
(37.5140°N, 94.9880°W)
Time: 22:33:02
(UTC-06:00)

Tiros 1 despin weight - Visible Passes

Search period start: 28 January 2020 00:00
Search period end: 07 February 2020 00:00
Orbit: 594 x 642 km, 48.2° (Epoch: 28 January)

Date Brightness Start Highest point End Pass type
(mag) Time Alt. Az. Time Alt. Az. Time Alt. Az.
03 Feb ? 05:52:52 10° SE 05:53:38 10° SE 05:54:24 10° ESE visible
04 Feb ? 06:06:23 10° S 06:09:50 23° SE 06:13:18 10° E visible
05 Feb ? 06:21:57 10° SSW 06:26:09 46° SE 06:30:24 10° ENE visible
06 Feb ? 04:59:08 10° SSE 05:01:36 15° SE 05:04:04 10° E visible
06 Feb ? 06:38:12 10° SW 06:42:37 89° WNW 06:47:05 10° NE visible
